Flag for Australia Weather past 2 weeks in Bairnsdale, Victoria, Australia

Now
44 °F

Passing clouds.


Feels Like: 39 °F
Forecast: 44 / 56 °F
Wind: 9 mph from West

Location: Bairnsdale Airport

Current Time: Apr 20, 2015 at 3:59:29 AM

Latest Report: Apr 20, 2015 at 3:00 AM


Visibility: N/A

Pressure: 30.53 "Hg

Humidity: 84%

Dew point: 40 °F

Location of BairnsdaleLocation

Historic Weather in Bairnsdale — Graph

°F

Bairnsdale temperature yesterday

Maximum temperature yesterday: 60 °F (at 12:00 PM)
Minimum temperature yesterday: 44 °F (at 11:00 PM)
Average temperature yesterday: 52 °F

Past Weeks' High & Low Weather Summary

 TemperatureHumidityPressure
High74 °F (Apr 15, 3:00 PM)100% (Apr 7, 12:00 PM)30.53 "Hg (Apr 7, 12:00 PM)
Low41 °F (Apr 20, 2:00 AM)45% (Apr 12, 2:00 PM)29.68 "Hg (Apr 6, 3:00 AM)
Average57 °F82%30.09 "Hg
* Reported Apr 5 2:00 AM — Apr 20 2:00 AM, Bairnsdale, Weather by CustomWeather, © 2015

Note: Actual official high and low records may vary slightly from our data, if they occured in-between our weather recording intervals... More about our weather records

Advertising

Bairnsdale weather history for previous 24 hours

 ConditionsComfort  
Time TempWeatherWind HumidityBarometerVisibility
2:00 AM
Mon, Apr 20
41 °FQuite cool.8 mph90%30.53 "HgN/A
12:00 AM43 °FOvercast.7 mph83%30.53 "HgN/A
11:00 PM
Sun, Apr 19
44 °FQuite cool.8 mph78%30.52 "HgN/A
9:00 PM48 °FOvercast.10 mph70%30.50 "HgN/A
8:00 PM49 °FCool.13 mph65%30.46 "HgN/A
6:00 PM51 °FCool.13 mph61%30.41 "HgN/A
5:00 PM55 °FCool.17 mph59%30.38 "HgN/A
3:00 PM55 °FOvercast.10 mph80%30.32 "HgN/A
2:00 PM49 °FCool.12 mph89%30.30 "HgN/A
12:00 PM60 °FPartly sunny.20 mph60%30.27 "HgN/A
11:00 AM58 °FCool.15 mph64%30.26 "HgN/A
9:00 AM53 °FCool.15 mph74%30.22 "HgN/A
8:00 AM51 °FCool.13 mph80%30.19 "HgN/A
6:00 AM50 °FOvercast.10 mph88%30.11 "HgN/A
5:00 AM50 °FCool.9 mph95%30.09 "HgN/A
3:00 AM50 °FFog.9 mph95%30.05 "HgN/A
Weather by CustomWeather, © 2015

See weather overviewHow to use our weather pages